Find BB 3

NORAD ID: 57760 Int'l Des: 2023-133 Owner: SDA Country: US operational
LEOPOLAR

Live Position

Loading 3D Globe...

About BB 3

Description loading...

Upcoming Passes

Passes for default location (London). Set your location on the main map for personalized predictions.

Altitude History

Loading altitude history...

Two-Line Element Set

1 57760U 23133D 26109.95784866 .00000660 00000-0 16875-3 0 9990
2 57760 80.9978 52.2098 0170498 120.6077 241.2052 14.40896392133623
Epoch: Apr 19, 2026 • Age: 25 hours

Current Status

Altitude 660.9 km
Velocity 7.59 km/s
Sub-Earth Point 81.04°N, 75.93°W
Launch Date Sep 2, 2023
Age 2.6 years
Type other

Technical Details

Classification Payload
Mass 800.00 kg
Dry Mass 800.00 kg
Total Mass 800.00 kg
Length 0.30 m
Diameter 3.00 m
Span 9.00 m
Shape Box + pan
Manufacturer SPX/LEIDOS
Bus Type Starshield
Phase Status In Orbit
Owner/State SDA/US

Most Searched